Location: Newark
(49.2191°N, 12.6671°E)
Time: 17:55:05
(UTC+00:00)

Envisat - Visible Passes

Search period start: 15 December 2019 00:00
Search period end: 25 December 2019 00:00
Orbit: 764 x 766 km, 98.1° (Epoch: 15 December)

Date Brightness Start Highest point End Pass type
(mag) Time Alt. Az. Time Alt. Az. Time Alt. Az.
15 Dec 5.6 04:55:46 10° NE 04:59:37 21° E 05:03:25 10° SE visible
15 Dec 3.4 16:14:03 10° SE 16:18:48 41° ENE 16:23:33 10° N visible
15 Dec 4.8 17:53:28 10° SSW 17:57:56 31° W 18:02:25 10° NNW visible
16 Dec 3.4 05:57:12 10° NNE 06:02:17 69° ESE 06:07:21 10° S visible
16 Dec 3.5 17:15:56 10° S 17:20:57 62° W 17:26:01 10° NNW visible
17 Dec 4.8 05:20:43 10° NNE 05:25:21 34° E 05:29:57 10° SSE visible
17 Dec 2.9 16:39:09 10° SSE 16:44:10 67° ENE 16:49:14 10° N visible
17 Dec 5.6 18:20:08 10° SW 18:23:41 19° W 18:27:16 10° NW visible
18 Dec 5.9 04:44:53 10° NE 04:48:12 17° E 04:51:30 10° SE visible
18 Dec 3.6 16:03:02 10° SE 16:07:35 34° ENE 16:12:09 10° N visible
18 Dec 4.5 17:41:52 10° SSW 17:46:34 37° W 17:51:18 10° NNW visible
19 Dec 3.8 05:45:57 10° NNE 05:50:58 56° E 05:55:58 10° S visible
19 Dec 3.1 17:04:34 10° S 17:09:39 76° WSW 17:14:46 10° NNW visible
19 Dec 6.2 18:48:04 10° WSW 18:49:33 11° W 18:51:03 10° WNW visible
20 Dec 5.2 05:09:37 10° NE 05:13:58 28° E 05:18:18 10° SSE visible
20 Dec 3.1 16:27:59 10° SE 16:32:55 55° ENE 16:37:53 10° N visible
20 Dec 5.3 18:08:16 10° SW 18:12:17 23° W 18:16:19 10° NW visible
21 Dec 6.1 04:34:11 10° NE 04:36:46 14° E 04:39:20 10° ESE visible
21 Dec 3.0 06:11:23 10° NNE 06:16:31 89° WNW 06:21:36 10° SSW visible
21 Dec 3.8 15:52:05 10° ESE 15:56:23 29° ENE 16:00:42 10° N visible
21 Dec 4.1 17:30:21 10° S 17:35:13 46° W 17:40:08 10° NNW visible
22 Dec 4.2 05:34:45 10° NNE 05:39:39 45° E 05:44:31 10° S visible
22 Dec 2.9 16:53:16 10° SSE 16:58:21 88° ENE 17:03:29 10° NNW visible
22 Dec 6.0 18:35:27 10° WSW 18:38:06 14° W 18:40:45 10° NW visible
23 Dec 5.5 04:58:34 10° NE 05:02:35 23° E 05:06:34 10° SE visible
23 Dec 3.3 16:16:53 10° SE 16:21:41 45° ENE 16:26:31 10° N visible
23 Dec 5.0 17:56:32 10° SSW 18:00:54 28° W 18:05:17 10° NW visible
24 Dec 6.3 04:23:57 10° ENE 04:25:18 11° E 04:26:40 10° E visible
24 Dec 3.3 06:00:07 10° NNE 06:05:14 75° ESE 06:10:18 10° S visible
24 Dec 3.6 17:18:54 10° S 17:23:53 57° W 17:28:55 10° NNW visible
